| time (UTC) | temp F | wind direction | speed MPH | gust MPH | rain 1hr in | rain 24hr in | rain mn in | humidity % | barometer mb |
| 20260504002031 | 87 | 281 | 8.0 | 19.0 | 0.00 | 0.00 | 0.00 | 13 | 1006.7 |
| 20260504001048 | 87 | 69 | 8.0 | 18.0 | 0.00 | 0.00 | 0.00 | 13 | 1006.6 |
| 20260504000033 | 87 | 279 | 10.0 | 21.0 | 0.00 | 0.00 | 0.00 | 13 | 1006.6 |
| 20260503235107 | 88 | 288 | 9.0 | 21.0 | 0.00 | 0.00 | 0.00 | 13 | 1006.6 |
| 20260503234033 | 88 | 88 | 8.0 | 21.0 | 0.00 | 0.00 | 0.00 | 13 | 1006.5 |
| 20260503233033 | 88 | 82 | 9.0 | 18.0 | 0.00 | 0.00 | 0.00 | 13 | 1006.5 |
| 20260503232032 | 89 | 80 | 9.0 | 19.0 | 0.00 | 0.00 | 0.00 | 13 | 1006.5 |
| 20260503231031 | 89 | 290 | 6.0 | 19.0 | 0.00 | 0.00 | 0.00 | 14 | 1006.5 |
| 20260503230033 | 89 | 85 | 7.0 | 19.0 | 0.00 | 0.00 | 0.00 | 14 | 1006.6 |
| 20260503225107 | 89 | 80 | 7.0 | 18.0 | 0.00 | 0.00 | 0.00 | 15 | 1006.6 |
| 20260503224033 | 89 | 84 | 4.0 | 13.0 | 0.00 | 0.00 | 0.00 | 17 | 1006.4 |
| 20260503223033 | 89 | 65 | 2.0 | 10.0 | 0.00 | 0.00 | 0.00 | 18 | 1006.9 |
| 20260503222033 | 88 | 27 | 5.0 | 16.0 | 0.00 | 0.00 | 0.00 | 20 | 1006.9 |
| 20260503221033 | 87 | 14 | 3.0 | 9.0 | 0.00 | 0.00 | 0.00 | 22 | 1006.9 |
| 20260503220031 | 87 | 35 | 4.0 | 10.0 | 0.00 | 0.00 | 0.00 | 22 | 1007.5 |
| 20260503215033 | 86 | 9 | 4.0 | 10.0 | 0.00 | 0.00 | 0.00 | 23 | 1007.5 |
| 20260503214033 | 85 | 4 | 5.0 | 15.0 | 0.00 | 0.00 | 0.00 | 24 | 1007.9 |
| 20260503213033 | 85 | 9 | 4.0 | 10.0 | 0.00 | 0.00 | 0.00 | 24 | 1008.4 |
| 20260503212050 | 84 | 7 | 6.0 | 12.0 | 0.00 | 0.00 | 0.00 | 24 | 1008.4 |
| 20260503211033 | 84 | 9 | 6.0 | 13.0 | 0.00 | 0.00 | 0.00 | 24 | 1008.3 |
| 20260503210033 | 84 | 357 | 6.0 | 12.0 | 0.00 | 0.00 | 0.00 | 24 | 1008.7 |
| 20260503205031 | 83 | 16 | 5.0 | 12.0 | 0.00 | 0.00 | 0.00 | 24 | 1008.7 |
| 20260503204033 | 83 | 1 | 5.0 | 10.0 | 0.00 | 0.00 | 0.00 | 25 | 1008.8 |
| 20260503203032 | 83 | 357 | 5.0 | 12.0 | 0.00 | 0.00 | 0.00 | 25 | 1009.0 |
| 20260503202033 | 82 | 5 | 6.0 | 10.0 | 0.00 | 0.00 | 0.00 | 25 | 1009.0 |
| 20260503201033 | 82 | 7 | 3.0 | 9.0 | 0.00 | 0.00 | 0.00 | 25 | 1009.2 |
| 20260503200050 | 82 | 5 | 5.0 | 13.0 | 0.00 | 0.00 | 0.00 | 26 | 1009.7 |
| 20260503195048 | 82 | 3 | 8.0 | 15.0 | 0.00 | 0.00 | 0.00 | 26 | 1009.7 |
| 20260503194033 | 81 | 27 | 7.0 | 15.0 | 0.00 | 0.00 | 0.00 | 27 | 1009.7 |
| 20260503193033 | 81 | 18 | 6.0 | 13.0 | 0.00 | 0.00 | 0.00 | 28 | 1009.7 |
| 20260503192033 | 81 | 14 | 6.0 | 13.0 | 0.00 | 0.00 | 0.00 | 28 | 1009.7 |
| 20260503191032 | 81 | 22 | 6.0 | 12.0 | 0.00 | 0.00 | 0.00 | 28 | 1009.8 |
| 20260503190033 | 80 | 2 | 6.0 | 12.0 | 0.00 | 0.00 | 0.00 | 29 | 1010.1 |
| 20260503185033 | 80 | 5 | 8.0 | 21.0 | 0.00 | 0.00 | 0.00 | 29 | 1010.1 |
| 20260503184031 | 80 | 26 | 6.0 | 16.0 | 0.00 | 0.00 | 0.00 | 29 | 1010.5 |
| 20260503183032 | 80 | 17 | 6.0 | 13.0 | 0.00 | 0.00 | 0.00 | 30 | 1010.4 |
| 20260503182033 | 80 | 2 | 4.0 | 9.0 | 0.00 | 0.00 | 0.00 | 30 | 1010.4 |
| 20260503181033 | 79 | 7 | 7.0 | 16.0 | 0.00 | 0.00 | 0.00 | 30 | 1010.8 |
| 20260503180032 | 79 | 3 | 7.0 | 13.0 | 0.00 | 0.00 | 0.00 | 30 | 1011.0 |
| 20260503175033 | 79 | 332 | 10.0 | 19.0 | 0.00 | 0.00 | 0.00 | 30 | 1011.0 |
| 20260503174033 | 79 | 4 | 7.0 | 15.0 | 0.00 | 0.00 | 0.00 | 30 | 1011.3 |
| 20260503173031 | 79 | 27 | 7.0 | 13.0 | 0.00 | 0.00 | 0.00 | 30 | 1011.4 |
| 20260503172033 | 79 | 8 | 4.0 | 12.0 | 0.00 | 0.00 | 0.00 | 30 | 1011.4 |
| 20260503171033 | 79 | 0 | 5.0 | 10.0 | 0.00 | 0.00 | 0.00 | 30 | 1011.4 |
| 20260503081033 | 74 | 33 | 0.0 | 3.0 | 0.00 | 0.00 | 0.00 | 31 | 1010.0 |
| 20260503072031 | 73 | 46 | 0.0 | 9.0 | 0.00 | 0.00 | 0.00 | 31 | 1010.4 |
| 20260503071031 | 73 | 358 | 0.0 | 3.0 | 0.00 | 0.00 | 0.00 | 31 | 1010.2 |
| 20260503055050 | 75 | 279 | 0.0 | 1.0 | 0.00 | 0.00 | 0.00 | 28 | 1009.6 |
| 20260503054033 | 75 | 279 | 0.0 | 1.0 | 0.00 | 0.00 | 0.00 | 28 | 1009.6 |
| 20260503053033 | 75 | 63 | 0.0 | 1.0 | 0.00 | 0.00 | 0.00 | 28 | 1009.8 |
| 20260503052033 | 75 | 0 | 0.0 | 0.0 | 0.00 | 0.00 | 0.00 | 28 | 1009.8 |
| 20260503051033 | 76 | 47 | 0.0 | 3.0 | 0.00 | 0.00 | 0.00 | 28 | 1009.6 |
| 20260503050031 | 76 | 75 | 0.0 | 1.0 | 0.00 | 0.00 | 0.00 | 27 | 1009.5 |
| 20260503045033 | 76 | 0 | 0.0 | 0.0 | 0.00 | 0.00 | 0.00 | 27 | 1009.5 |
| 20260503044050 | 76 | 74 | 0.0 | 1.0 | 0.00 | 0.00 | 0.00 | 27 | 1009.4 |
| 20260503043050 | 76 | 0 | 0.0 | 0.0 | 0.00 | 0.00 | 0.00 | 27 | 1009.4 |
| 20260503042033 | 76 | 0 | 0.0 | 0.0 | 0.00 | 0.00 | 0.00 | 27 | 1009.4 |
| 20260503041032 | 76 | 0 | 0.0 | 0.0 | 0.00 | 0.00 | 0.00 | 27 | 1009.3 |
| 20260503040033 | 77 | 0 | 0.0 | 0.0 | 0.00 | 0.00 | 0.00 | 26 | 1008.9 |
| 20260503035031 | 77 | 0 | 0.0 | 0.0 | 0.00 | 0.00 | 0.00 | 25 | 1008.9 |
| 20260503034033 | 78 | 0 | 0.0 | 0.0 | 0.00 | 0.00 | 0.00 | 25 | 1009.1 |
| 20260503033033 | 78 | 0 | 0.0 | 0.0 | 0.00 | 0.00 | 0.00 | 24 | 1009.3 |
| 20260503032032 | 79 | 0 | 0.0 | 0.0 | 0.00 | 0.00 | 0.00 | 23 | 1009.3 |
| 20260503031033 | 79 | 286 | 1.0 | 4.0 | 0.00 | 0.00 | 0.00 | 23 | 1009.1 |
| 20260503030050 | 79 | 0 | 0.0 | 0.0 | 0.00 | 0.00 | 0.00 | 22 | 1009.0 |
| 20260503025033 | 79 | 0 | 0.0 | 0.0 | 0.00 | 0.00 | 0.00 | 22 | 1009.0 |
| 20260503024031 | 80 | 17 | 0.0 | 1.0 | 0.00 | 0.00 | 0.00 | 21 | 1009.0 |
| 20260503023033 | 80 | 0 | 0.0 | 0.0 | 0.00 | 0.00 | 0.00 | 21 | 1009.1 |
| 20260503022032 | 81 | 0 | 0.0 | 0.0 | 0.00 | 0.00 | 0.00 | 21 | 1009.1 |
| 20260503021032 | 81 | 17 | 0.0 | 1.0 | 0.00 | 0.00 | 0.00 | 20 | 1009.1 |
| 20260503020050 | 82 | 0 | 0.0 | 0.0 | 0.00 | 0.00 | 0.00 | 20 | 1009.2 |
| 20260503015033 | 82 | 0 | 0.0 | 0.0 | 0.00 | 0.00 | 0.00 | 19 | 1009.2 |
| 20260503014031 | 83 | 32 | 0.0 | 1.0 | 0.00 | 0.00 | 0.00 | 19 | 1009.0 |
| 20260503013030 | 83 | 10 | 0.0 | 3.0 | 0.00 | 0.00 | 0.00 | 19 | 1009.9 |
| 20260503012050 | 83 | 274 | 0.0 | 6.0 | 0.00 | 0.00 | 0.00 | 19 | 1009.9 |
| 20260503011033 | 83 | 0 | 0.0 | 0.0 | 0.00 | 0.00 | 0.00 | 18 | 1010.1 |
| 20260503010033 | 84 | 356 | 0.0 | 3.0 | 0.00 | 0.00 | 0.00 | 18 | 1009.8 |
| 20260503005033 | 84 | 32 | 1.0 | 4.0 | 0.00 | 0.00 | 0.00 | 17 | 1009.8 |
| 20260503004050 | 85 | 33 | 2.0 | 6.0 | 0.00 | 0.00 | 0.00 | 17 | 1009.7 |
| 20260503003030 | 86 | 346 | 1.0 | 7.0 | 0.00 | 0.00 | 0.00 | 16 | 1009.3 |